SVA597 OMDB-OERK

Flight info

Callsign SVA597
Flight time N/A
Altitude 34000
Route SENPA N571 ALPOB L768 ULADA T136 OTISU N112 GETOT Q212 MEMGO
Aircraft A320/M-SDE3FGHIRWY/LB1

Departure

Time N/A
Airport Dubai International Airport (OMDB)

Arrival

Time 2026-05-04 22:09
Airport King Khalid International Airport (OERK)
Time Latitude Longitude Altitude Speed Heading
2026-05-04 21:45 25.61116 47.49408 18502 ft 393 kts 244°
2026-05-04 21:46 25.59861 47.46730 17906 ft 388 kts 244°
2026-05-04 21:46 25.58618 47.44099 17315 ft 383 kts 243°
2026-05-04 21:46 25.57388 47.41505 16747 ft 378 kts 243°
2026-05-04 21:46 25.57132 47.40965 16636 ft 378 kts 243°
2026-05-04 21:47 25.56103 47.38794 16161 ft 375 kts 243°
2026-05-04 21:47 25.54895 47.36240 15610 ft 374 kts 243°
2026-05-04 21:47 25.54237 47.34846 15309 ft 372 kts 243°
2026-05-04 21:47 25.53221 47.32692 14836 ft 371 kts 243°
2026-05-04 21:48 25.52030 47.30169 14302 ft 369 kts 243°
2026-05-04 21:48 25.50842 47.27661 13754 ft 367 kts 243°
2026-05-04 21:48 25.49661 47.25168 13171 ft 364 kts 243°
2026-05-04 21:48 25.48489 47.22684 12702 ft 363 kts 243°
2026-05-04 21:49 25.47568 47.20117 12174 ft 360 kts 254°
2026-05-04 21:49 25.47176 47.17396 11785 ft 358 kts 266°
2026-05-04 21:49 25.47312 47.14624 11712 ft 362 kts 275°
2026-05-04 21:49 25.47603 47.11848 11624 ft 363 kts 275°
2026-05-04 21:50 25.47888 47.09074 11486 ft 362 kts 275°
2026-05-04 21:50 25.48168 47.06305 11356 ft 362 kts 274°
2026-05-04 21:50 25.48446 47.03540 11217 ft 361 kts 274°
2026-05-04 21:50 25.48723 47.00776 11075 ft 361 kts 274°
2026-05-04 21:51 25.49001 46.98023 10944 ft 360 kts 275°
2026-05-04 21:51 25.49277 46.95304 10810 ft 356 kts 275°
2026-05-04 21:51 25.49553 46.92610 10680 ft 339 kts 275°
2026-05-04 21:51 25.49809 46.90107 10564 ft 324 kts 275°
2026-05-04 21:52 25.50059 46.87680 10437 ft 311 kts 274°
2026-05-04 21:52 25.50300 46.85353 10327 ft 299 kts 274°
2026-05-04 21:52 25.50529 46.83105 10160 ft 290 kts 274°
2026-05-04 21:52 25.50749 46.80909 10018 ft 285 kts 274°
2026-05-04 21:53 25.50965 46.78732 9959 ft 285 kts 274°
2026-05-04 21:53 25.51180 46.76551 9872 ft 285 kts 274°
2026-05-04 21:53 25.51396 46.74374 9768 ft 284 kts 274°
2026-05-04 21:53 25.51614 46.72201 9665 ft 284 kts 274°
2026-05-04 21:54 25.51834 46.70030 9543 ft 284 kts 274°
2026-05-04 21:54 25.52052 46.67859 9439 ft 283 kts 274°
2026-05-04 21:54 25.52270 46.65691 9333 ft 283 kts 274°
2026-05-04 21:54 25.52486 46.63522 9224 ft 283 kts 274°
2026-05-04 21:55 25.52700 46.61353 9119 ft 283 kts 274°
2026-05-04 21:55 25.52914 46.59185 9007 ft 283 kts 274°
2026-05-04 21:55 25.53128 46.57018 8900 ft 281 kts 274°
2026-05-04 21:55 25.53336 46.54918 8797 ft 269 kts 274°
2026-05-04 21:56 25.53537 46.52903 8695 ft 257 kts 274°
2026-05-04 21:56 25.53727 46.50975 8609 ft 246 kts 272°
2026-05-04 21:56 25.53584 46.49152 8503 ft 233 kts 252°
2026-05-04 21:56 25.52932 46.47570 8417 ft 228 kts 238°
2026-05-04 21:57 25.52115 46.46067 8330 ft 228 kts 238°
2026-05-04 21:57 25.51304 46.44563 8239 ft 227 kts 238°
2026-05-04 21:57 25.50498 46.43059 8150 ft 228 kts 238°
2026-05-04 21:57 25.49692 46.41551 8062 ft 227 kts 238°
2026-05-04 21:58 25.48793 46.40103 7977 ft 225 kts 221°
2026-05-04 21:58 25.47428 46.39342 7883 ft 227 kts 189°
2026-05-04 21:58 25.45878 46.39585 7794 ft 231 kts 156°
2026-05-04 21:58 25.44446 46.40465 7695 ft 234 kts 153°
2026-05-04 21:59 25.43040 46.41367 7612 ft 234 kts 153°
2026-05-04 21:59 25.41637 46.42267 7512 ft 233 kts 153°
2026-05-04 21:59 25.40255 46.43151 7424 ft 232 kts 153°
2026-05-04 21:59 25.38854 46.44043 7331 ft 232 kts 153°
2026-05-04 22:00 25.37457 46.44931 7240 ft 231 kts 153°
2026-05-04 22:00 25.36067 46.45818 7157 ft 230 kts 153°
2026-05-04 22:00 25.34681 46.46701 7074 ft 230 kts 153°
2026-05-04 22:00 25.33306 46.47578 6987 ft 227 kts 153°
2026-05-04 22:01 25.31941 46.48449 6897 ft 226 kts 153°
2026-05-04 22:01 25.30579 46.49316 6810 ft 226 kts 153°
2026-05-04 22:01 25.29219 46.50184 6722 ft 225 kts 153°
2026-05-04 22:01 25.27866 46.51045 6646 ft 225 kts 153°
2026-05-04 22:02 25.26514 46.51906 6559 ft 224 kts 153°
2026-05-04 22:02 25.25165 46.52764 6470 ft 223 kts 153°
2026-05-04 22:02 25.23819 46.53621 6393 ft 223 kts 153°
2026-05-04 22:02 25.22471 46.54478 6314 ft 222 kts 153°
2026-05-04 22:03 25.21141 46.55323 6221 ft 216 kts 153°
2026-05-04 22:03 25.19872 46.56131 6142 ft 206 kts 153°
2026-05-04 22:03 25.18657 46.56903 6066 ft 197 kts 153°
2026-05-04 22:03 25.17483 46.57649 5997 ft 193 kts 153°
2026-05-04 22:04 25.16327 46.58382 5900 ft 191 kts 153°
2026-05-04 22:04 25.15177 46.59112 5737 ft 190 kts 152°
2026-05-04 22:04 25.14036 46.59836 5508 ft 189 kts 152°
2026-05-04 22:04 25.12896 46.60560 5292 ft 189 kts 152°
2026-05-04 22:05 25.11754 46.61284 5059 ft 189 kts 151°
2026-05-04 22:05 25.10607 46.62012 4827 ft 190 kts 151°
2026-05-04 22:05 25.09459 46.62741 4590 ft 191 kts 150°
2026-05-04 22:05 25.08314 46.63467 4349 ft 192 kts 150°
2026-05-04 22:06 25.07136 46.64214 4104 ft 193 kts 150°
2026-05-04 22:06 25.05970 46.64952 3863 ft 194 kts 150°
2026-05-04 22:06 25.04815 46.65684 3640 ft 193 kts 149°
2026-05-04 22:06 25.03690 46.66397 3403 ft 179 kts 149°
2026-05-04 22:07 25.02647 46.67058 3180 ft 167 kts 149°
2026-05-04 22:07 25.01679 46.67670 2977 ft 154 kts 149°
2026-05-04 22:07 25.00771 46.68246 2796 ft 146 kts 148°
2026-05-04 22:07 24.99901 46.68811 2590 ft 145 kts 149°
2026-05-04 22:08 24.99023 46.69378 2406 ft 147 kts 150°
2026-05-04 22:08 24.98125 46.69906 2192 ft 145 kts 146°
2026-05-04 22:08 24.97267 46.70490 2040 ft 145 kts 152°
2026-05-04 22:08 24.96498 46.70970 2032 ft 112 kts 150°
2026-05-04 22:09 24.95892 46.71348 2034 ft 80 kts 150°
2026-05-04 22:09 24.95617 46.71436 2036 ft 20 kts 200°
2026-05-04 22:09 24.95518 46.71398 2031 ft 15 kts 207°
2026-05-04 22:09 24.95452 46.71307 2033 ft 15 kts 255°
2026-05-04 22:10 24.95509 46.71233 2038 ft 13 kts 331°
2026-05-04 22:10 24.95582 46.71187 2033 ft 11 kts 331°
2026-05-04 22:10 24.95649 46.71148 2036 ft 10 kts 331°
2026-05-04 22:10 24.95709 46.71109 2036 ft 11 kts 329°
2026-05-04 22:11 24.95795 46.71055 2031 ft 17 kts 332°
2026-05-04 22:11 24.95919 46.70980 2036 ft 20 kts 330°
2026-05-04 22:11 24.95919 46.70879 2033 ft 14 kts 239°
2026-05-04 22:11 24.95873 46.70793 2030 ft 12 kts 239°
2026-05-04 22:12 24.95834 46.70717 2036 ft 11 kts 240°
2026-05-04 22:12 24.95800 46.70650 2037 ft 9 kts 240°
2026-05-04 22:12 24.95783 46.70629 2040 ft 0 kts 220°
2026-05-04 22:13 24.95762 46.70650 2036 ft 7 kts 136°
2026-05-04 22:13 24.95716 46.70642 2036 ft 6 kts 207°
2026-05-04 22:13 24.95698 46.70632 2030 ft 2 kts 207°
2026-05-04 22:13 24.95694 46.70629 2037 ft 0 kts 207°